EST,Max TemperatureF,Mean TemperatureF,Min TemperatureF,Max Dew PointF,MeanDew PointF,Min DewpointF,Max Humidity, Mean Humidity, Min Humidity, Max Sea Level PressureIn, Mean Sea Level PressureIn, Min Sea Level PressureIn, Max VisibilityMiles, Mean VisibilityMiles, Min VisibilityMiles, Max Wind SpeedMPH, Mean Wind SpeedMPH, Max Gust SpeedMPH,PrecipitationIn, CloudCover, Events, WindDirDegrees
2011-12-1,51,48,44,37,35,32,71,60,50,30.32,30.20,30.06,10,10,10,16,10,23,0.00,2,,352
2011-12-2,59,48,37,41,34,27,87,62,31,30.45,30.38,30.34,10,10,10,6,3,,0.00,0,,343
2011-12-3,57,46,35,41,39,34,93,63,51,30.59,30.54,30.46,10,10,10,15,8,20,0.00,1,,41
2011-12-4,64,58,53,54,51,45,88,78,68,30.53,30.46,30.40,10,10,10,12,8,,0.00,4,,44
2011-12-5,71,65,59,55,53,50,82,70,53,30.38,30.31,30.25,10,10,5,12,4,18,0.00,7,,115
2011-12-6,69,62,55,59,57,54,94,83,64,30.23,30.14,30.08,10,9,1,14,6,,0.00,1,,172
2011-12-7,69,64,59,61,58,54,88,82,68,30.02,29.84,29.58,10,10,3,28,11,43,0.00,3,Rain,202
2011-12-8,55,48,42,50,34,28,82,62,41,30.37,30.18,29.75,10,10,7,17,11,28,0.00,2,Rain,354
2011-12-9,66,54,42,52,45,36,82,69,46,30.34,30.27,30.20,10,10,10,12,6,,0.00,3,,104
2011-12-10,53,50,46,50,40,32,94,69,50,30.40,30.26,30.17,10,9,3,21,11,32,0.00,4,Rain,4
2011-12-11,51,48,44,37,31,25,66,54,46,30.59,30.53,30.45,10,10,10,17,13,23,0.00,2,,39
2011-12-12,59,54,50,50,47,41,88,77,67,30.51,30.46,30.40,10,10,10,16,12,23,0.00,1,,34
2011-12-13,53,50,46,50,41,32,94,72,44,30.42,30.38,30.34,10,10,7,15,9,22,0.00,4,,1
2011-12-14,55,50,44,45,40,32,82,69,57,30.40,30.37,30.35,10,10,7,13,7,,0.00,2,,5
2011-12-15,60,51,42,52,47,41,93,80,59,30.35,30.22,30.09,10,9,3,17,4,16,0.00,0,,196
2011-12-16,68,60,53,54,48,39,77,66,52,30.17,30.12,30.07,10,10,10,20,12,25,0.00,3,Rain,307
2011-12-17,48,45,41,45,36,27,93,71,53,30.21,30.15,30.10,10,9,5,15,11,22,0.00,7,Rain,359
2011-12-18,46,42,37,30,27,25,70,56,43,30.38,30.26,30.17,10,10,10,14,9,22,0.00,1,,350
2011-12-19,53,42,32,41,33,28,93,70,44,30.38,30.31,30.23,10,10,7,15,4,,0.00,0,,211
2011-12-20,62,55,48,50,46,41,88,75,59,30.23,30.19,30.15,10,10,10,12,7,,0.00,2,,247
2011-12-21,66,60,53,57,53,48,94,83,64,30.19,30.11,30.03,10,10,7,21,8,,0.00,5,Rain,196
2011-12-22,69,63,57,59,56,54,88,81,68,30.16,30.08,30.03,10,10,7,14,8,,0.00,5,,208
2011-12-23,68,60,51,59,50,41,94,74,59,30.21,30.05,29.90,10,10,10,26,15,31,0.00,5,,351
2011-12-24,53,48,44,43,36,34,71,61,47,30.45,30.35,30.22,10,10,10,14,9,21,0.00,1,,23
2011-12-25,57,45,33,41,34,30,93,64,38,30.42,30.32,30.15,10,10,10,8,3,,0.00,1,,216
2011-12-26,51,44,37,43,33,28,81,57,41,30.36,30.25,30.07,10,10,10,18,10,28,0.00,0,,346
2011-12-27,60,46,33,55,46,32,94,81,67,30.28,29.92,29.58,10,8,2,31,7,40,0.00,5,Rain,180
2011-12-28,55,50,44,43,34,28,66,54,38,30.02,29.81,29.61,10,10,10,20,12,29,0.00,1,,285
2011-12-29,51,44,37,41,32,21,87,60,30,30.14,30.07,30.03,10,10,10,13,4,,0.00,0,,221
2011-12-30,59,50,42,45,40,36,82,68,42,30.15,30.08,30.04,10,10,10,16,7,,0.00,0,,211
2011-12-31,64,57,44,50,45,39,88,67,45,30.15,30.00,29.92,10,10,10,10,6,16,0.00,2,,259